This is the latest recevied weather packets stored in our database for station/object K5NCO. If no packets are shown the sender has not sent any weather packets the latest 10 day(s).
| Time | Temp. | Humidity | Pressure | Rain* | Wind** | Luminosity | Snow |
|---|---|---|---|---|---|---|---|
| 1777732220 | 15.56° C | 71% | 1024.2 hPa | 0 mm | - | 322 W/m² | - |
| 1777731917 | 15.56° C | 73% | 1024.3 hPa | 0 mm | - | 307 W/m² | - |
| 1777731613 | 15.56° C | 73% | 1024.3 hPa | 0 mm | - | 289 W/m² | - |
| 1777731311 | 15° C | 75% | 1024.1 hPa | 0 mm | - | 274 W/m² | - |
| 1777731009 | 15° C | 76% | 1024.1 hPa | 0 mm | - | 259 W/m² | - |
| 1777730707 | 14.44° C | 78% | 1024.1 hPa | 0 mm | - | 241 W/m² | - |
| 1777730402 | 14.44° C | 80% | 1024 hPa | 0 mm | - | 226 W/m² | - |
| 1777730093 | 13.89° C | 83% | 1023.9 hPa | 0 mm | - | 211 W/m² | - |
| 1777729790 | 13.33° C | 85% | 1023.9 hPa | 0 mm | - | 195 W/m² | - |
| 1777729487 | 13.33° C | 84% | 1023.9 hPa | 0 mm | - | 183 W/m² | - |
| 1777729184 | 13.33° C | 85% | 1023.8 hPa | 0 mm | - | 169 W/m² | - |
| 1777728880 | 12.78° C | 86% | 1023.8 hPa | 0 mm | - | 156 W/m² | - |
| 1777728577 | 12.22° C | 86% | 1023.7 hPa | 0 mm | - | 144 W/m² | - |
| 1777728274 | 12.22° C | 87% | 1023.5 hPa | 0 mm | - | 136 W/m² | - |
| 1777727972 | 12.22° C | 87% | 1023.5 hPa | 0 mm | - | 125 W/m² | - |
| 1777727667 | 12.22° C | 88% | 1023.4 hPa | 0 mm | - | 113 W/m² | - |
| 1777727365 | 11.67° C | 89% | 1023.2 hPa | 0 mm | - | 103 W/m² | - |
| 1777727062 | 11.67° C | 89% | 1023.5 hPa | 0 mm | - | 94 W/m² | - |
| 1777726759 | 11.67° C | 90% | 1023.4 hPa | 0 mm | - | 84 W/m² | - |
| 1777726457 | 11.11° C | 91% | 1023.4 hPa | 0 mm | - | 75 W/m² | - |
| 1777726153 | 11.11° C | 91% | 1023.3 hPa | 0 mm | - | 67 W/m² | - |
| 1777725850 | 10.56° C | 92% | 1023 hPa | 0 mm | - | 59 W/m² | - |
| 1777725548 | 10.56° C | 93% | 1023.1 hPa | 0 mm | - | 51 W/m² | - |
| 1777725245 | 10° C | 94% | 1022.9 hPa | 0 mm | - | 43 W/m² | - |
| 1777724941 | 10° C | 94% | 1022.8 hPa | 0 mm | - | 36 W/m² | - |
* Rain latest hour (hover to see other rain measurements)
** Current wind speed in m/s (hover to see current wind gust speed)